Content
SEND FEEDBACK

Daily
Averages
Monthly
Summary
United States of America

ROCKLAND, MAINE


Home > North America > United States > Maine
Elevation: 40 feet     Latitude: 44 06N     Longitude: 069 07W

WEATHER
 
SELECT A DAY
Number of Records: 454,460;   Date Range: 1/1/95 - 8/12/14
 
SHARE

PRINT THIS DATA

[ ← Previous Day ]
WEATHER ALMANAC - JANUARY 23, 2013
[ Next Day → ]
[ °C ]   °F
Weather ElementAverageHighLow
Temperature2.6 °F8.6 °F (12:35 am)-0.4 °F (6:55 am)
Dewpoint-15.6 °F-11.2 °F (11:55 am)-18.4 °F (4:15 pm)
Humidity42.8 %51 % (6:55 am)33 % (4:15 pm)
Barometer30.01 in30.04 in (7:55 am)29.98 in (12:35 am)
Wind Speed13.3 mph25.3 mph (9:35 am)
Wind Gust29.9 mph (9:35 am)
Weather ElementAverage
Visibility10 mi
Wind DirectionWNW (287.5 °)

Weather ElementTotal
Precipitation---
Heating Degree Days60.9 (Base 65)
Averaged from 68 records on January 23, 2013
WEATHER CONDITIONS BREAKOUT
WIND DIRECTION BREAKOUT
WEATHER BY HOUR - JANUARY 23, 2013
[ °C ]   °F
Local TimeTemperatureDewpointHumidityBarometerVisibilityWind DirectionWind SpeedGust SpeedPrecipitationEventsConditions
12:35 AM8.6 °F-14.8 °F34 %29.98 in10.0 miWNW (290°)12.7 mph26.5 mphClear
12:55 AM6.8 °F-14.8 °F37 %29.99 in10.0 miWest (280°)13.8 mphClear
1:15 AM6.8 °F-13.0 °F40 %29.99 in10.0 miWest (280°)13.8 mphClear
1:35 AM6.8 °F-13.0 °F40 %29.99 in10.0 miWNW (300°)5.8 mphClear
2:15 AM5.0 °F-13.0 °F43 %30.00 in10.0 miWNW (300°)6.9 mphClear
2:35 AM5.0 °F-14.8 °F40 %30.00 in10.0 miWNW (300°)11.5 mph16.1 mphClear
2:55 AM5.0 °F-14.8 °F40 %29.99 in10.0 miWNW (290°)15.0 mph19.6 mphClear
3:15 AM3.2 °F-14.8 °F43 %29.99 in10.0 miWNW (290°)10.4 mph18.4 mphClear
3:35 AM3.2 °F-13.0 °F47 %29.99 in10.0 miWNW (300°)5.8 mph18.4 mphClear
3:55 AM3.2 °F-14.8 °F43 %29.99 in10.0 miWNW (300°)12.7 mph19.6 mphClear
4:15 AM3.2 °F-14.8 °F43 %29.99 in10.0 miWNW (300°)13.8 mph21.9 mphClear
4:35 AM3.2 °F-14.8 °F43 %30.00 in10.0 miWNW (300°)8.1 mph19.6 mphClear
4:55 AM1.4 °F-14.8 °F47 %30.01 in10.0 miWNW (290°)10.4 mphClear
5:15 AM1.4 °F-16.6 °F43 %30.01 in10.0 miWNW (290°)11.5 mph18.4 mphClear
5:35 AM1.4 °F-14.8 °F47 %30.01 in10.0 miWest (280°)13.8 mphClear
5:55 AM1.4 °F-16.6 °F43 %30.01 in10.0 miWNW (290°)11.5 mph20.7 mphClear
6:15 AM1.4 °F-14.8 °F47 %30.02 in10.0 miWNW (290°)10.4 mphClear
6:35 AM1.4 °F-14.8 °F47 %30.02 in10.0 miWest (270°)10.4 mph16.1 mphClear
6:55 AM-0.4 °F-14.8 °F51 %30.02 in10.0 miWNW (290°)8.1 mphClear
7:35 AM-0.4 °F-16.6 °F46 %30.03 in10.0 miWest (280°)13.8 mph25.3 mphClear
7:55 AM-0.4 °F-14.8 °F51 %30.04 in10.0 miWNW (290°)11.5 mph18.4 mphClear
8:15 AM1.4 °F-14.8 °F47 %30.04 in10.0 miWest (280°)12.7 mph18.4 mphClear
8:35 AM1.4 °F-14.8 °F47 %30.03 in10.0 miWNW (290°)11.5 mph19.6 mphClear
8:55 AM1.4 °F-16.6 °F43 %30.03 in10.0 miWNW (290°)10.4 mph25.3 mphClear
9:15 AM1.4 °F-14.8 °F47 %30.03 in10.0 miWest (270°)21.9 mph26.5 mphClear
9:35 AM1.4 °F-16.6 °F43 %30.03 in10.0 miWest (270°)25.3 mph29.9 mphClear
9:55 AM1.4 °F-14.8 °F47 %30.03 in10.0 miWest (280°)18.4 mphClear
10:15 AM1.4 °F-16.6 °F43 %30.03 in10.0 miWest (280°)19.6 mph28.8 mphClear
10:35 AM1.4 °F-14.8 °F47 %30.02 in10.0 miWNW (290°)15.0 mph26.5 mphClear
10:55 AM1.4 °F-16.6 °F43 %30.01 in10.0 miWNW (290°)16.1 mph29.9 mphClear
11:15 AM1.4 °F-14.8 °F47 %30.00 in10.0 miWest (270°)21.9 mph26.5 mphClear
11:35 AM3.2 °F-14.8 °F43 %29.99 in10.0 miWest (280°)21.9 mphClear
11:55 AM3.2 °F-11.2 °F51 %29.99 in10.0 miWNW (300°)11.5 mph19.6 mphClear
12:15 PM3.2 °F-14.8 °F43 %29.98 in10.0 miWNW (300°)15.0 mph23.0 mphClear
12:35 PM3.2 °F-14.8 °F43 %29.98 in10.0 miWNW (290°)16.1 mph25.3 mphClear
12:55 PM3.2 °F-14.8 °F43 %29.98 in10.0 miWNW (290°)17.3 mph29.9 mphClear
1:15 PM5.0 °F-14.8 °F40 %29.98 in10.0 miWest (280°)16.1 mph20.7 mphClear
1:35 PM5.0 °F-13.0 °F43 %29.98 in10.0 miWNW (300°)13.8 mph23.0 mphClear
1:55 PM5.0 °F-16.6 °F36 %29.98 in10.0 miWNW (290°)11.5 mph25.3 mphClear
2:15 PM6.8 °F-14.8 °F37 %29.98 in10.0 miNW (310°)11.5 mph27.6 mphClear
2:35 PM6.8 °F-16.6 °F34 %29.98 in10.0 miWest (270°)18.4 mph24.2 mphClear
2:55 PM6.8 °F-16.6 °F34 %29.99 in10.0 miWNW (300°)12.7 mph21.9 mphClear
3:15 PM6.8 °F-16.6 °F34 %29.98 in10.0 miWest (280°)15.0 mph21.9 mphClear
3:35 PM5.0 °F-16.6 °F36 %29.98 in10.0 miWest (270°)20.7 mph28.8 mphClear
4:15 PM5.0 °F-18.4 °F33 %30.00 in10.0 miWNW (290°)10.4 mph17.3 mphClear
4:35 PM3.2 °F-18.4 °F36 %30.00 in10.0 miWest (280°)17.3 mph21.9 mphClear
4:55 PM3.2 °F-18.4 °F36 %29.99 in10.0 miWest (280°)18.4 mph27.6 mphClear
5:15 PM3.2 °F-16.6 °F39 %30.00 in10.0 miWNW (290°)17.3 mph24.2 mphClear
5:35 PM3.2 °F-16.6 °F39 %30.01 in10.0 miWest (280°)12.7 mph18.4 mphClear
5:55 PM3.2 °F-16.6 °F39 %30.01 in10.0 miWest (280°)15.0 mph23.0 mphClear
6:15 PM3.2 °F-16.6 °F39 %30.01 in10.0 miWNW (290°)10.4 mph18.4 mphClear
6:35 PM1.4 °F-16.6 °F43 %30.02 in10.0 miWNW (290°)12.7 mph16.1 mphClear
6:55 PM1.4 °F-16.6 °F43 %30.02 in10.0 miWest (280°)16.1 mph23.0 mphClear
7:15 PM1.4 °F-14.8 °F47 %30.03 in10.0 miWest (280°)8.1 mph16.1 mphClear
7:35 PM1.4 °F-16.6 °F43 %30.02 in10.0 miWest (280°)12.7 mph18.4 mphClear
7:55 PM1.4 °F-16.6 °F43 %30.01 in10.0 miWNW (290°)13.8 mph23.0 mphClear
8:15 PM1.4 °F-16.6 °F43 %30.01 in10.0 miWNW (290°)12.7 mph18.4 mphClear
8:35 PM1.4 °F-16.6 °F43 %30.02 in10.0 miWest (280°)11.5 mph17.3 mphClear
8:55 PM1.4 °F-16.6 °F43 %30.01 in10.0 miWNW (290°)10.4 mph19.6 mphClear
9:15 PM-0.4 °F-16.6 °F46 %30.01 in10.0 miWNW (290°)15.0 mph21.9 mphClear
9:35 PM-0.4 °F-16.6 °F46 %30.01 in10.0 miWNW (290°)11.5 mph21.9 mphClear
9:55 PM-0.4 °F-16.6 °F46 %30.01 in10.0 miWest (280°)15.0 mph19.6 mphClear
10:15 PM-0.4 °F-16.6 °F46 %30.01 in10.0 miWNW (290°)11.5 mph18.4 mphClear
10:35 PM-0.4 °F-16.6 °F46 %30.01 in10.0 miWNW (290°)8.1 mphClear
10:55 PM-0.4 °F-16.6 °F46 %30.01 in10.0 miWNW (300°)6.9 mphClear
11:15 PM-0.4 °F-16.6 °F46 %30.01 in10.0 miWNW (290°)9.2 mphClear
11:35 PM-0.4 °F-16.6 °F46 %30.01 in10.0 miWNW (290°)9.2 mph20.7 mphClear
11:55 PM-0.4 °F-16.6 °F46 %30.01 in10.0 miWNW (290°)9.2 mphClear
Hourly data recorded from KRKD, located miles away from Rockland, Maine







STORIES FROM OUR PARTNERS